Dewpoint
69 69 69 69 69 68 69 69 70 69 69 70 70 70 69 68 68 68 69 68 70 70 70 69 68 67 68 69 69 70 70 70 70
69 68 69 69 69 69 68 69 69 69 69 69 69 68 67 67 67 67 67 69 70 70 70 69 69 68 66 67 67 68 68 68 69
68 68 68 67 67 68 68 68 68 68 68 68 68 67 66 66 66 67 67 69 69 69 69 68 67 67 68 68 68 67 66 66 66
67 67 67 66 66 66 67 67 67 67 67 67 66 65 65 65 66 66 67 69 69 69 69 69 69 68 68 67 67 67 67 67 67
64 65 66 66 65 65 65 66 66 66 65 64 63 63 64 64 65 66 66 69 69 69 68 68 68 68 68 67 67 67 66 65 65
58 62 62 64 63 64 63 62 61 60 61 62 61 61 61 63 64 65 67 68 68 67 67 67 68 68 67 66 67 66 66 65 65
56 57 59 59 59 60 61 61 60 58 56 55 58 57 59 61 62 64 67 67 67 67 67 67 67 67 66 66 66 65 65 65 65
52 52 52 54 55 54 54 54 54 55 56 56 55 55 56 57 60 63 66 67 67 68 67 67 67 67 66 66 65 65 65 64 64
49 49 50 51 53 52 52 53 52 53 54 55 56 55 55 56 57 60 63 66 67 67 67 67 67 67 66 66 65 65 65 65 65
46 47 47 48 50 52 52 51 51 51 51 52 54 54 54 54 55 57 60 64 65 66 67 67 66 65 65 65 64 64 64 64 64
44 45 45 45 47 50 52 50 50 50 50 50 51 52 53 53 53 55 58 61 63 64 64 65 65 65 65 64 63 63 62 62 62
40 42 42 43 45 47 49 48 48 49 49 49 49 50 51 51 52 54 56 55 58 59 61 61 63 64 64 64 63 62 62 62 62
38 39 39 41 42 44 45 46 46 48 48 48 49 50 48 48 49 52 53 52 51 53 55 57 58 59 61 61 61 60 60 60 60
35 36 37 39 41 42 43 43 44 45 47 48 48 48 46 45 46 50 51 48 46 44 48 50 51 54 56 57 58 58 58 58 59
33 34 35 37 38 38 41 41 41 42 44 48 46 44 43 43 44 48 46 43 41 39 38 38 40 47 50 52 55 56 57 57 57
31 32 33 34 34 34 36 40 40 39 40 47 44 43 41 40 42 44 45 41 38 35 32 30 32 34 43 47 49 52 54 56 55
26 29 29 30 31 31 32 36 39 38 37 44 44 43 42 40 39 40 42 38 35 31 27 27 26 29 33 38 43 46 49 54 53
24 25 27 27 28 28 29 31 36 37 36 37 40 44 42 38 37 36 38 34 32 27 21 20 25 26 27 33 36 42 45 50 51
21 23 24 25 26 24 25 26 29 34 32 36 35 33 36 40 35 33 35 29 26 22 20 19 19 24 27 28 36 39 42 44 46
16 20 21 22 24 23 21 22 22 24 24 26 28 31 31 30 39 33 31 25 23 22 20 20 19 20 25 24 31 37 39 41 43
Lifted_Index
-1 -1 -1 -1 -1 -1 -1 -2 -3 -3 -3 -3 -3 -3 -3 -3 -2 -2 -2 -3 -3 -3 -3 -2 -2 -1 -1 -2 -2 -2 -2 -2 -2
-1 -1 -1 -1 -1 -1 -1 -2 -3 -3 -2 -2 -2 -2 -2 -2 -2 -2 -2 -3 -3 -3 -3 -2 -2 -1 -1 -1 -1 -1 -1 -1 -2
-1 -1 -1 -1 -1 -1 -1 -1 -2 -2 -2 -1 -1 -2 -2 -2 -2 -2 -2 -3 -3 -3 -2 -2 -2 -1 -1 -1 -1 -1 -1 -1 -1
0 0 0 0 0 0 0 -0 -0 -1 -0 -0 -1 -1 -1 -1 -2 -2 -2 -3 -3 -3 -2 -2 -2 -2 -1 -1 -1 -1 -1 -0 -0
2 2 1 1 1 2 2 1 1 1 1 0 -0 -0 -0 -1 -1 -1 -2 -2 -3 -2 -2 -2 -2 -1 -1 -1 -0 -0 -0 -0 -0
3 3 3 3 3 3 3 3 2 2 2 1 0 0 -0 -0 -1 -1 -1 -2 -2 -2 -2 -1 -1 -1 -0 -0 -0 -0 0 0 0
5 5 4 4 4 3 3 3 3 3 3 3 2 2 1 0 -0 -1 -1 -1 -2 -1 -1 -1 -1 -1 -0 0 0 0 0 1 1
5 5 5 5 4 4 3 3 3 4 4 4 4 4 3 2 1 1 -0 -1 -1 -1 -1 -1 -0 -0 -0 0 0 0 1 1 1
5 5 5 5 5 4 4 4 4 4 5 5 5 5 5 4 3 2 1 0 -0 -1 -0 -0 -0 0 0 0 0 0 1 1 1
5 5 5 5 5 5 5 5 5 5 5 5 5 5 5 5 5 4 3 2 1 0 0 0 0 1 1 1 1 1 1 1 1
5 5 5 5 5 5 5 5 5 5 5 5 5 5 5 6 5 5 4 3 2 1 1 1 1 1 1 2 2 2 2 2 2
6 6 5 5 5 5 5 5 5 5 5 6 6 6 6 6 5 5 4 3 2 2 2 2 1 1 2 2 2 2 2 2 2
7 6 6 6 5 5 5 5 6 6 6 6 6 6 6 6 5 5 4 4 4 3 3 3 3 3 3 3 3 3 3 3 3
7 7 6 6 6 6 6 6 6 7 7 7 7 7 7 7 6 6 6 6 5 5 5 5 5 5 5 5 5 5 5 4 4
7 7 6 6 6 6 6 7 7 7 8 8 8 8 8 8 8 8 7 7 7 7 7 7 7 7 7 7 7 7 6 6 6
8 8 7 7 7 7 7 7 7 8 8 9 9 9 10 9 9 9 9 9 9 9 8 9 9 9 9 10 10 10 9 8 8
9 9 9 8 8 8 8 8 8 8 8 9 9 10 10 10 10 10 10 10 10 10 10 10 11 11 11 11 12 12 11 11 10
9 9 9 9 9 9 9 9 9 9 9 9 9 10 10 10 11 11 11 11 11 11 11 12 12 13 13 14 14 14 14 13 13
9 10 10 10 10 11 11 11 11 11 10 10 10 10 10 10 10 11 11 11 12 12 12 13 14 15 15 16 17 18 17 16 15
10 10 10 10 10 11 11 12 12 12 11 10 10 10 10 10 10 10 11 11 12 13 13 14 15 16 17 18 20 20 19 18 17